Cloud_Cover
100 100 98 100 100 100 100 100 100 100 100 74 100 72 5 0 0 0 9 100 100 100 100 100 100 100 100 80 8 44 5 5 4 2 0 5 78 16 4 7 4 0 2 5 5 3 1
100 100 100 100 100 100 100 100 100 100 100 100 99 100 100 7 5 1 0 39 100 100 100 100 99 83 60 70 5 31 5 58 5 0 0 42 72 12 0 0 0 45 38 2 4 3 10
91 100 100 100 100 100 100 100 100 100 100 100 100 100 100 100 88 7 5 14 55 100 100 100 100 58 9 7 9 5 5 90 11 3 0 100 100 3 0 3 4 0 0 3 96 6 36
100 100 97 100 100 100 100 100 100 100 100 100 100 100 100 100 97 60 5 5 100 100 100 100 100 100 99 82 25 5 5 28 5 5 2 58 52 12 4 0 0 1 0 0 18 56 95
100 100 100 100 100 100 100 100 100 100 100 100 100 100 100 100 100 32 45 8 100 100 100 100 100 100 75 97 86 5 11 5 8 6 5 11 5 12 0 4 2 6 0 36 37 36 54
100 100 100 100 100 100 100 100 100 100 100 100 100 100 100 100 100 78 32 38 84 100 100 100 100 100 92 92 91 45 31 7 5 65 52 42 5 5 3 100 5 100 99 80 42 54 5
100 100 100 100 100 100 100 100 100 100 100 100 100 100 100 100 100 94 93 86 6 100 100 100 100 100 100 68 100 100 100 91 4 5 92 5 5 5 5 98 59 5 42 4 100 5 4
100 100 100 100 100 100 100 100 100 100 100 100 100 100 100 100 100 100 100 100 69 86 95 100 100 100 100 100 100 100 100 100 12 75 10 5 6 90 100 99 100 60 4 1 100 100 3
100 100 100 100 100 100 100 100 100 100 100 100 100 100 100 100 100 100 100 100 100 100 91 88 100 100 100 100 100 100 100 100 95 6 5 62 62 93 100 100 100 100 5 7 66 76 18
100 100 100 100 100 100 100 100 100 98 100 100 100 100 100 100 100 81 97 100 100 100 80 99 90 67 100 100 100 100 100 100 100 96 5 30 77 88 33 100 99 57 5 41 6 52 8
17 18 29 31 100 40 94 100 100 100 36 100 100 100 100 100 100 99 57 51 98 100 100 96 100 100 100 100 100 100 100 100 100 100 67 100 56 81 31 100 100 18 54 5 24 5 21
100 100 100 45 7 6 5 17 96 100 100 100 61 100 100 92 70 100 100 100 99 12 86 4 72 99 100 100 100 100 100 100 100 100 100 100 100 100 72 100 100 56 18 5 7 5 5
100 100 95 57 100 86 90 86 65 100 100 97 87 5 100 51 100 100 100 100 100 42 79 99 18 40 98 100 100 100 100 100 100 100 100 100 100 100 70 97 100 100 36 29 57 10 5
95 97 40 6 18 5 6 5 13 100 100 100 73 94 82 59 20 98 100 100 0 99 82 52 100 6 29 95 100 100 100 100 100 100 100 100 100 97 100 98 60 100 9 100 90 100 50
100 98 26 36 10 21 64 38 62 70 100 100 99 83 48 90 52 100 100 100 6 30 33 99 75 74 44 70 100 100 100 100 100 100 100 100 100 100 100 100 24 99 76 100 100 14 73
100 100 100 99 88 100 100 100 74 95 100 100 95 98 91 86 9 47 100 91 3 14 6 3 3 1 88 25 86 100 100 100 100 100 100 100 100 86 86 86 100 100 98 100 100 94 64
100 94 92 53 92 82 100 100 100 100 100 100 100 100 54 100 57 100 100 24 0 3 17 33 5 37 6 100 82 90 100 100 100 100 100 100 100 100 100 76 100 46 19 95 100 100 100
100 99 79 92 68 94 79 53 99 100 100 100 100 100 100 93 100 100 70 3 0 0 0 2 5 50 100 99 100 97 81 100 100 100 100 100 100 100 100 91 94 99 96 32 100 100 100
93 99 73 98 100 64 100 100 100 100 100 100 100 100 100 100 100 100 70 3 4 3 0 0 0 1 61 99 100 100 94 91 100 100 100 100 100 100 92 100 100 100 100 75 100 95 100
87 100 100 100 100 29 32 97 100 100 100 100 100 100 100 100 28 49 10 2 2 1 5 0 17 1 10 98 100 100 100 100 100 100 100 100 100 100 14 99 100 100 100 83 89 100 100
100 100 100 100 100 100 100 27 100 100 100 100 100 100 44 100 99 5 42 9 5 45 3 0 4 99 0 61 84 100 100 100 100 100 100 100 100 100 88 100 100 100 100 100 100 100 100
100 100 100 100 100 75 8 5 90 100 100 100 100 100 74 83 84 85 66 50 7 54 7 0 0 0 5 22 100 100 100 100 100 100 100 100 100 100 95 100 100 100 100 100 100 100 98
74 20 5 5 5 37 92 97 83 94 100 100 100 90 100 14 98 94 60 5 4 16 93 1 0 3 71 0 100 100 100 100 100 100 100 100 100 100 100 100 100 70 100 100 100 100 100
58 100 100 100 100 100 71 96 100 100 62 100 100 99 100 100 90 29 5 5 10 99 15 19 32 2 0 39 88 100 100 100 100 100 100 100 100 100 100 100 40 78 100 100 100 100 40
100 100 100 100 91 100 86 95 100 100 32 86 100 100 100 100 100 100 100 100 99 95 100 92 51 0 0 100 100 100 100 100 100 100 100 100 100 100 86 97 64 11 100 100 100 100 74
70 20 7 5 13 100 100 100 100 100 100 96 100 100 100 100 100 98 100 100 100 83 84 31 12 96 100 97 97 91 100 100 100 100 74 100 100 100 100 94 43 99 100 100 100 28 100
5 5 5 5 5 38 72 100 100 100 100 100 100 100 100 100 43 100 100 100 98 82 72 97 100 100 56 32 67 90 100 100 100 100 100 100 100 75 100 89 80 100 100 100 100 98 100
5 32 8 5 5 59 100 90 86 88 100 100 100 100 94 100 100 100 100 100 100 100 99 76 100 100 14 26 3 22 100 100 97 99 100 96 100 100 97 88 35 100 100 100 100 100 96
5 75 76 100 100 100 100 82 100 96 100 100 100 100 100 100 100 100 100 100 100 100 100 100 100 100 22 100 82 59 96 100 100 100 100 100 78 100 100 36 17 99 100 100 100 100 100